Location: Newark
(42.8481°N, 0.4872°E)
Time: 05:25:10
(UTC+00:00)

Explorer 7 - Pass Details

Date: 03 November 2020
Orbit: 484 x 678 km, 50.3° (Epoch: 30 November)

Event Time Altitude Azimuth Distance (km) Brightness Sun altitude
Rises 17:38:10 0° 296° (WNW) 2,586 11.2 -9.8°
Reaches altitude 10° 17:40:23 10° 290° (WNW) 1,720 10.3 -10.2°
Maximum altitude 17:44:04 42° 218° (SW) 751 7.9 -10.8°
Drops below altitude 10° 17:47:56 10° 147° (SSE) 1,803 9.2 -11.5°
Sets 17:50:18 0° 141° (SE) 2,728 10.1 -11.9°
